This is the latest recevied weather packets stored in our database for station/object KE9DBJ-13. If no packets are shown the sender has not sent any weather packets the latest 10 day(s).
| Time | Temp. | Humidity | Pressure | Rain* | Wind** | Luminosity | Snow |
|---|---|---|---|---|---|---|---|
| 1777992603 | 19.44° C | 75% | 1008 hPa | 0 mm | - | - | - |
| 1777992003 | 19.44° C | 78% | 1008 hPa | 0 mm | - | - | - |
| 1777991403 | 18.89° C | 76% | 1008.1 hPa | 0 mm | - | - | - |
| 1777990803 | 18.89° C | 79% | 1008.1 hPa | 0 mm | - | - | - |
| 1777989603 | 18.33° C | 79% | 1007.9 hPa | 0 mm | - | - | - |
| 1777989002 | 17.78° C | 82% | 1007.9 hPa | 0 mm | - | - | - |
| 1777988402 | 18.33° C | 81% | 1007.7 hPa | 0 mm | - | - | - |
| 1777987802 | 17.78° C | 83% | 1007.8 hPa | 0 mm | - | - | - |
| 1777987202 | 16.67° C | 85% | 1007.8 hPa | 0 mm | - | - | - |
| 1777986602 | 16.11° C | 89% | 1007.8 hPa | 0 mm | - | - | - |
| 1777986002 | 15.56° C | 92% | 1008.4 hPa | 0 mm | - | - | - |
| 1777985402 | 15.56° C | 92% | 1008.2 hPa | 0 mm | - | - | - |
| 1777984802 | 15.56° C | 92% | 1008.4 hPa | 0 mm | - | - | - |
| 1777984202 | 15.56° C | 93% | 1008.5 hPa | 0 mm | - | - | - |
| 1777983602 | 15.56° C | 96% | 1008.7 hPa | 0 mm | - | - | - |
| 1777983003 | 15° C | 97% | 1008.8 hPa | 0 mm | - | - | - |
| 1777982403 | 14.44° C | 98% | 1008.7 hPa | 0 mm | - | - | - |
| 1777981803 | 14.44° C | 98% | 1008.6 hPa | 0 mm | - | - | - |
| 1777981203 | 13.89° C | 99% | 1008.4 hPa | 0 mm | - | - | - |
| 1777980603 | 13.89° C | 99% | 1008.5 hPa | 0 mm | - | - | - |
| 1777980003 | 13.89° C | 99% | 1008.6 hPa | 0 mm | - | - | - |
| 1777979402 | 13.89° C | 99% | 1008.6 hPa | 0 mm | - | - | - |
| 1777978802 | 13.89° C | 99% | 1008.4 hPa | 0 mm | - | - | - |
| 1777978202 | 13.89° C | 98% | 1008.6 hPa | 0 mm | - | - | - |
| 1777977602 | 13.89° C | 97% | 1008.7 hPa | 0 mm | - | - | - |
* Rain latest hour (hover to see other rain measurements)
** Current wind speed in m/s (hover to see current wind gust speed)